This is the latest recevied weather packets stored in our database for station/object XE2B-20. If no packets are shown the sender has not sent any weather packets the latest 10 day(s).
| Time | Temp. | Humidity | Pressure | Rain* | Wind** | Luminosity | Snow |
|---|---|---|---|---|---|---|---|
| 1777496467 | 38.89° C | 12% | 803.9 hPa | - | - | - | - |
| 1777494967 | 39.44° C | 13% | 804.2 hPa | - | - | - | - |
| 1777493477 | 38.89° C | 13% | 804.7 hPa | - | - | - | - |
| 1777491974 | 38.33° C | 12% | 805 hPa | - | - | - | - |
| 1777490473 | 38.89° C | 13% | 805.3 hPa | - | - | - | - |
| 1777488976 | 38.33° C | 12% | 805.7 hPa | - | - | - | - |
| 1777487476 | 36.11° C | 14% | 806 hPa | - | - | - | - |
| 1777485977 | 35° C | 15% | 806.4 hPa | - | - | - | - |
| 1777484482 | 35° C | 15% | 806.6 hPa | - | - | - | - |
| 1777482983 | 34.44° C | 15% | 806.9 hPa | - | - | - | - |
| 1777481484 | 33.33° C | 15% | 807.3 hPa | - | - | - | - |
| 1777479986 | 31.67° C | 17% | 807.5 hPa | - | - | - | - |
| 1777478488 | 32.78° C | 16% | 807.5 hPa | - | - | - | - |
| 1777476989 | 31.67° C | 16% | 807.4 hPa | - | - | - | - |
| 1777475490 | 31.67° C | 16% | 807.3 hPa | - | - | - | - |
| 1777473990 | 29.44° C | 15% | 807.3 hPa | - | - | - | - |
| 1777472491 | 26.67° C | 17% | 807.3 hPa | - | - | - | - |
| 1777470991 | 25° C | 17% | 807.1 hPa | - | - | - | - |
| 1777469491 | 22.22° C | 19% | 807 hPa | - | - | - | - |
| 1777467990 | 17.78° C | 21% | 806.7 hPa | - | - | - | - |
| 1777466492 | 16.11° C | 23% | 806.5 hPa | - | - | - | - |
| 1777464994 | 16.67° C | 22% | 806.4 hPa | - | - | - | - |
| 1777463496 | 17.22° C | 22% | 806.3 hPa | - | - | - | - |
| 1777461997 | 17.22° C | 22% | 805.8 hPa | - | - | - | - |
| 1777460498 | 16.67° C | 22% | 805.6 hPa | - | - | - | - |
* Rain since midnight (hover to see other rain measurements)
** Current wind speed in m/s (hover to see current wind gust speed)